Location: Adamstown South Public School
(32.9318°S, 151.7012°E)
Time: 20:56:55
(UTC+00:00)

Cosmos 1420 Rocket - Pass Details

Date: 07 June 2020
Orbit: 755 x 781 km, 74.0° (Epoch: 06 July)

Event Time Altitude Azimuth Distance (km) Brightness Sun altitude
Rises 07:28:03 0° 199° (SSW) 3,286 7.2 -7.4°
Reaches altitude 10° 07:30:28 10° 201° (SSW) 2,348 6.5 -7.9°
Maximum altitude 07:35:47 74° 285° (WNW) 812 4.3 -8.9°
Drops below altitude 10° 07:41:00 10° 9° (N) 2,302 6.6 -10.0°
Sets 07:43:21 0° 10° (N) 3,216 7.4 -10.4°
